Location: Newark
(7.1028°S, 35.3258°W)
Time: 09:34:56
(UTC+00:00)

Explorer 7 - Visible Passes

Search period start: 28 February 2020 00:00
Search period end: 09 March 2020 00:00
Orbit: 485 x 679 km, 50.3° (Epoch: 27 February)

Date Brightness Start Highest point End Pass type
(mag) Time Alt. Az. Time Alt. Az. Time Alt. Az.
28 Feb 9.4 22:08:45 10° W 22:11:16 17° SW 22:13:47 10° S visible
01 Mar 9.7 06:50:57 10° S 06:54:19 19° SE 06:57:46 10° E visible
02 Mar 8.6 06:54:55 10° SSW 06:59:13 36° SE 07:03:40 10° ENE visible
03 Mar 7.3 07:01:14 23° SSW 07:04:05 74° SE 07:08:54 10° NE visible
04 Mar 7.2 07:08:03 47° W 07:08:55 54° NW 07:13:39 10° NNE visible
05 Mar 8.3 07:14:38 26° NW 07:14:38 26° NW 07:17:51 10° N visible
06 Mar 9.4 07:20:55 11° NNW 07:20:55 11° NNW 07:21:08 10° NNW visible
